OH7GGX-14 Weather Reports


time (UTC)temp
F
wind
direction
speed
knots
gust
knots
rain 1hr
in
rain 24hr
in
rain mn
in
humidity
%
barometer
mb
20260508161125 52 80 6.1 10.4 0.00 0.00 0.00 47 1026.5
20260508160125 53 352 2.6 4.3 0.00 0.00 0.00 41 1026.5
20260508155125 53 281 1.7 4.3 0.00 0.00 0.00 41 1026.5
20260508154125 53 180 0.0 3.5 0.00 0.00 0.00 41 1026.3
20260508153125 52 15 2.6 4.3 0.00 0.00 0.00 39 1026.3
20260508152125 52 343 2.6 3.5 0.00 0.00 0.00 40 1026.2
20260508151125 52 351 4.3 8.7 0.00 0.00 0.00 41 1026.2
20260508150125 53 351 4.3 4.3 0.00 0.00 0.00 40 1026.1
20260508145125 52 237 0.9 4.3 0.00 0.00 0.00 40 1026.1
20260508144125 52 350 2.6 6.1 0.00 0.00 0.00 41 1026.1
20260508143125 52 302 3.5 8.7 0.00 0.00 0.00 42 1026.0
20260508142125 52 36 7.0 10.4 0.00 0.00 0.00 43 1026.0
20260508141125 51 8 5.2 9.6 0.00 0.00 0.00 42 1026.0
20260508140125 51 22 7.0 10.4 0.00 0.00 0.00 43 1025.9
20260508135125 52 12 7.8 7.8 0.00 0.00 0.00 41 1026.0
20260508134125 52 36 4.3 7.0 0.00 0.00 0.00 41 1025.8
20260508133125 52 14 1.7 9.6 0.00 0.00 0.00 40 1025.7
20260508132125 52 268 1.7 7.0 0.00 0.00 0.00 43 1025.5
20260508131125 51 14 3.5 9.6 0.00 0.00 0.00 44 1025.5
20260508130125 51 345 2.6 5.2 0.00 0.00 0.00 44 1025.4
20260508125125 50 323 6.1 6.1 0.00 0.00 0.00 44 1025.6
20260508124125 50 341 3.5 7.0 0.00 0.00 0.00 44 1025.5
20260508123125 51 36 5.2 6.1 0.00 0.00 0.00 43 1025.5
20260508122125 51 2 4.3 8.7 0.00 0.00 0.00 42 1025.4
20260508121125 51 5 3.5 7.8 0.00 0.00 0.00 45 1025.4
20260508120125 50 91 0.9 7.0 0.00 0.00 0.00 46 1025.2
20260508115125 49 9 2.6 7.8 0.00 0.00 0.00 49 1025.4
20260508114125 50 351 2.6 7.0 0.00 0.00 0.00 45 1025.1
20260508113125 50 350 6.1 6.1 0.00 0.00 0.00 47 1025.2
20260508112125 50 0 0.9 4.3 0.00 0.00 0.00 51 1025.1
20260508111125 49 324 1.7 7.8 0.00 0.00 0.00 49 1025.2
20260508110125 49 12 4.3 6.1 0.00 0.00 0.00 49 1025.0
20260508105125 48 9 1.7 3.5 0.00 0.00 0.00 57 1025.0
20260508104125 47 300 5.2 8.7 0.00 0.00 0.00 60 1025.0
20260508103125 47 2 2.6 7.8 0.00 0.00 0.00 65 1025.0
20260508102125 47 42 4.3 4.3 0.00 0.00 0.00 66 1025.0
20260508101125 46 11 1.7 7.0 0.00 0.00 0.00 68 1024.8
20260508100125 45 21 7.8 8.7 0.00 0.00 0.00 69 1024.8
20260508095126 45 338 1.7 3.5 0.00 0.00 0.00 75 1024.8
20260508094126 44 261 2.6 6.1 0.00 0.00 0.00 80 1024.6
20260508093125 44 9 6.1 6.1 0.00 0.00 0.00 81 1024.7
20260508092126 44 348 4.3 5.2 0.00 0.00 0.00 82 1024.4
20260508091126 44 324 3.5 8.7 0.00 0.00 0.00 85 1024.3
20260508090126 43 338 3.5 3.5 0.00 0.00 0.00 88 1024.4
20260508085126 44 344 5.2 7.0 0.00 0.00 0.00 82 1024.2
20260508084126 44 337 3.5 6.1 0.00 0.00 0.00 81 1023.9
20260508083126 43 19 1.7 5.2 0.00 0.00 0.00 84 1024.0
20260508082126 43 300 3.5 7.8 0.00 0.00 0.00 83 1024.0
20260508081126 43 355 0.9 7.8 0.00 0.00 0.00 84 1023.8
20260508080128 43 202 0.9 3.5 0.00 0.00 0.00 84 1023.5
20260508075126 43 330 1.7 5.2 0.00 0.00 0.00 85 1023.3
20260508074126 43 336 2.6 8.7 0.00 0.00 0.00 87 1023.2
20260508073126 42 0 0.0 6.1 0.00 0.00 0.00 87 1023.1
20260508072126 42 300 2.6 5.2 0.00 0.00 0.00 86 1023.0
20260508071126 43 312 2.6 5.2 0.00 0.00 0.00 82 1022.7
20260508070126 42 291 0.9 3.5 0.00 0.00 0.00 82 1022.6
20260508065126 43 178 0.9 5.2 0.00 0.00 0.00 82 1022.4
20260508064126 43 300 9.6 9.6 0.00 0.00 0.00 81 1022.1
20260508063126 43 333 1.7 5.2 0.00 0.00 0.00 81 1022.1
20260508062126 43 337 2.6 3.5 0.00 0.00 0.00 82 1021.9
20260508061126 43 29 2.6 3.5 0.00 0.00 0.00 81 1021.8
20260508060126 43 288 1.7 3.5 0.00 0.00 0.00 83 1021.7
20260508055126 43 254 2.6 4.3 0.00 0.00 0.00 82 1021.4
20260508054126 43 267 2.6 6.1 0.00 0.00 0.00 80 1021.3
20260508053126 43 267 3.5 3.5 0.00 0.00 0.00 82 1021.2
20260508052126 43 268 0.0 4.3 0.00 0.00 0.00 83 1021.0
20260508051126 43 267 0.9 6.1 0.00 0.00 0.00 82 1020.9
20260508050126 43 278 3.5 3.5 0.00 0.00 0.00 84 1020.7
20260508045126 42 350 1.7 4.3 0.00 0.00 0.00 86 1020.6
20260508044126 42 306 2.6 4.3 0.00 0.00 0.00 87 1020.6
20260508043126 41 286 2.6 2.6 0.00 0.00 0.00 89 1020.5
20260508042126 41 299 0.9 2.6 0.00 0.00 0.00 92 1020.4
20260508041126 40 310 1.7 5.2 0.00 0.00 0.00 92 1020.3
20260508040126 40 300 1.7 3.5 0.00 0.00 0.00 91 1020.2
20260508035126 40 298 3.5 3.5 0.00 0.00 0.00 92 1020.2
20260508034126 39 232 0.9 4.3 0.00 0.00 0.00 91 1020.1
20260508033126 38 313 1.7 3.5 0.00 0.00 0.00 92 1020.0
20260508032126 38 281 0.9 2.6 0.00 0.00 0.00 91 1019.9
20260508031126 37 291 0.0 2.6 0.00 0.00 0.00 91 1019.8
20260508030126 37 19 0.9 1.7 0.00 0.00 0.00 90 1019.7
20260508025126 36 291 0.9 2.6 0.00 0.00 0.00 89 1019.5
20260508024126 36 237 0.9 2.6 0.00 0.00 0.00 87 1019.4
20260508023126 36 281 1.7 1.7 0.00 0.00 0.00 85 1019.2
20260508022126 36 307 0.0 0.0 0.00 0.00 0.00 81 1019.1
20260508021126 37 267 0.0 0.9 0.00 0.00 0.00 79 1019.1
20260508020126 38 338 0.0 0.0 0.00 0.00 0.00 78 1018.8
20260508015126 39 336 0.0 0.0 0.00 0.00 0.00 78 1018.8
20260508014126 39 341 0.0 0.9 0.00 0.00 0.00 78 1018.8
20260508013126 39 330 0.0 0.9 0.00 0.00 0.00 77 1018.8
20260508012126 39 22 0.9 2.6 0.00 0.00 0.00 77 1018.7
20260508011127 40 196 0.0 1.7 0.00 0.00 0.00 76 1018.7
20260508010126 40 343 0.9 1.7 0.00 0.00 0.00 75 1018.6
20260508005126 39 168 0.0 1.7 0.00 0.00 0.00 76 1018.6
20260508004126 39 133 0.9 3.5 0.00 0.00 0.00 77 1018.6
20260508003126 37 348 1.7 4.3 0.00 0.00 0.00 81 1018.6
20260508002127 35 217 2.6 7.8 0.00 0.00 0.00 85 1018.6
20260508001126 32 178 0.0 5.2 0.00 0.00 0.00 88 1018.5
20260508000127 32 178 0.9 0.9 0.00 0.00 0.00 88 1018.6
20260507235127 32 223 1.7 1.7 0.00 0.00 0.00 88 1018.4
20260507234127 32 21 0.0 0.9 0.00 0.00 0.00 87 1018.2
20260507233127 31 199 0.0 0.0 0.00 0.00 0.00 87 1018.1
20260507232127 31 199 0.0 0.0 0.00 0.00 0.00 86 1018.1
20260507231127 31 312 0.0 0.9 0.00 0.00 0.00 85 1018.1
20260507230127 31 133 0.0 0.0 0.00 0.00 0.00 85 1017.9
20260507225127 31 199 0.0 0.0 0.00 0.00 0.00 84 1018.0
20260507224127 31 334 0.0 0.0 0.00 0.00 0.00 83 1018.0
20260507223127 31 178 0.0 0.0 0.00 0.00 0.00 82 1017.8
20260507222127 31 21 0.0 0.0 0.00 0.00 0.00 80 1017.8
20260507221127 31 336 0.0 0.0 0.00 0.00 0.00 79 1017.9
20260507220127 31 223 0.0 0.0 0.00 0.00 0.00 79 1017.9
20260507215127 32 223 0.0 0.0 0.00 0.00 0.00 76 1017.8
20260507214127 32 334 0.0 0.0 0.00 0.00 0.00 75 1017.8
20260507213127 33 334 0.0 0.0 0.00 0.00 0.00 73 1017.8
20260507212127 33 223 0.0 0.0 0.00 0.00 0.00 73 1017.7
20260507211127 33 260 0.0 0.9 0.00 0.00 0.00 72 1017.7
20260507210127 33 178 0.9 0.9 0.00 0.00 0.00 71 1017.6
20260507205127 34 223 0.0 0.9 0.00 0.00 0.00 69 1017.6
20260507204127 34 267 0.0 0.0 0.00 0.00 0.00 68 1017.5
20260507203127 35 267 0.0 0.0 0.00 0.00 0.00 67 1017.5
20260507202127 35 267 0.0 0.0 0.00 0.00 0.00 66 1017.3
20260507201127 36 267 0.0 0.0 0.00 0.00 0.00 63 1017.3
20260507200127 37 223 0.0 0.0 0.00 0.00 0.00 63 1017.3
20260507195127 38 223 0.0 0.0 0.00 0.00 0.00 60 1017.1
20260507194127 39 223 0.0 0.0 0.00 0.00 0.00 58 1017.2
20260507193127 40 223 0.0 0.0 0.00 0.00 0.00 56 1017.1
20260507192127 41 223 0.0 0.0 0.00 0.00 0.00 55 1017.2
20260507191127 42 223 0.0 0.0 0.00 0.00 0.00 52 1017.2
20260507190127 44 334 0.0 0.0 0.00 0.00 0.00 50 1017.0
20260507185127 45 223 0.0 0.0 0.00 0.00 0.00 48 1017.0
20260507184127 46 223 0.0 0.0 0.00 0.00 0.00 46 1017.0
20260507183127 47 309 0.0 0.0 0.00 0.00 0.00 45 1016.9
20260507182127 48 312 0.0 0.0 0.00 0.00 0.00 43 1016.9
20260507181127 49 312 0.0 0.0 0.00 0.00 0.00 41 1016.9
20260507180127 50 344 0.0 0.0 0.00 0.00 0.00 39 1017.0
20260507175127 51 223 0.0 0.0 0.00 0.00 0.00 38 1016.9
20260507174127 52 347 0.0 0.9 0.00 0.00 0.00 36 1016.8
20260507173127 52 291 0.0 0.9 0.00 0.00 0.00 35 1016.8
20260507172127 53 303 0.9 1.7 0.00 0.00 0.00 34 1016.8
20260507171127 53 250 0.0 0.0 0.00 0.00 0.00 35 1016.7
20260507170127 53 302 0.0 0.9 0.00 0.00 0.00 34 1016.7
20260507165127 53 11 0.0 1.7 0.00 0.00 0.00 33 1016.7
20260507164127 53 21 0.0 1.7 0.00 0.00 0.00 33 1016.7
20260507163127 53 223 0.0 0.9 0.00 0.00 0.00 32 1016.6
20260507162127 53 267 0.9 0.9 0.00 0.00 0.00 32 1016.6